This demonstration page uses our WeatherBlox Daily Observations layout. Learn more.

Left ArrowRight Arrow

41.86663, -103.66717

Hourly Observations for January 22, 2017

Temp ( °F °C ) Dew Point ( °F °C ) Humidity (%) Winds ( mph kmh ) Pressure ( in mb ) Visibility ( mi km ) Precip ( " mm )
12:53 am 00:53 Mostly Cloudy 28 -2.2 24 -4.4 85 85 NW 6 9 29.75 1007 10 16 0.00 0.00
1:53 am 01:53 Clear 26 -3.3 22 -5.6 84 84 WNW 7 11 29.78 1009 10 16 0.00 0.00
2:53 am 02:53 Clear 24 -4.4 20 -6.7 84 84 NW 8 13 29.81 1010 10 16 0.00 0.00
3:53 am 03:53 Clear 25 -3.9 20 -6.7 81 81 NW 6 9 29.84 1010 10 16 0.00 0.00
4:53 am 04:53 Clear 26 -3.3 21 -6.1 81 81 WNW 10 17 29.87 1011 10 16 0.00 0.00
5:53 am 05:53 Clear 23 -5 19 -7.2 85 85 WNW 8 13 29.91 1013 10 16 0.00 0.00
6:53 am 06:53 Clear 24 -4.4 19 -7.2 81 81 WNW 8 13 29.94 1014 10 16 0.00 0.00
7:53 am 07:53 Cloudy 27 -2.8 21 -6.1 78 78 WNW 7 11 29.97 1015 10 16 0.00 0.00
8:53 am 08:53 Cloudy 30 -1.1 22 -5.6 72 72 WNW 10 17 29.98 1015 10 16 0.00 0.00
9:53 am 09:53 Sunny 36 2.2 24 -4.4 62 62 WNW 13 20 29.98 1015 10 16 0.00 0.00
10:53 am 10:53 Sunny 40 4.4 23 -5 51 51 WNW 15 24 29.98 1015 10 16 0.00 0.00
11:53 am 11:53 Sunny 43 6.1 21 -6.1 42 42 W 14 22 29.95 1014 10 16 0.00 0.00
12:53 pm 12:53 Sunny 45 7.2 20 -6.7 37 37 WNW 16 26 29.92 1013 10 16 0.00 0.00
1:53 pm 13:53 Sunny 45 7.2 18 -7.8 34 34 WNW 15 24 29.92 1013 10 16 0.00 0.00
2:53 pm 14:53 Sunny 45 7.2 18 -7.8 34 34 WNW 13 20 29.92 1013 10 16 0.00 0.00
3:53 pm 15:53 Sunny 44 6.7 16 -8.9 32 32 WNW 15 24 29.91 1013 10 16 0.00 0.00
4:53 pm 16:53 Sunny 37 2.8 18 -7.8 46 46 W 8 13 29.93 1014 10 16 0.00 0.00
5:53 pm 17:53 Clear 33 0.6 19 -7.2 56 56 WSW 6 9 29.97 1015 10 16 0.00 0.00
6:53 pm 18:53 Clear 29 -1.7 20 -6.7 69 69 NNW 7 11 29.97 1015 10 16 0.00 0.00
7:53 pm 19:53 Clear 27 -2.8 19 -7.2 72 72 S 3 6 29.95 1014 10 16 0.00 0.00
8:53 pm 20:53 Clear 25 -3.9 19 -7.2 78 78 ESE 5 7 29.92 1013 10 16 0.00 0.00
9:53 pm 21:53 Clear 26 -3.3 19 -7.2 75 75 E 5 7 29.89 1012 10 16 0.00 0.00
10:53 pm 22:53 Clear 25 -3.9 19 -7.2 78 78 E 8 13 29.86 1011 10 16 0.00 0.00
11:53 pm 23:53 Clear 28 -2.2 21 -6.1 75 75 Calm 29.82 1010 10 16 0.00 0.00

Powered by AerisWeather